Wetbulb
56.66 57.14 56.92 55.58 55.39 54.93 54.35 54.55 54.05 53.72 54.11 54.76 55.13 54.82 54.89 53.83 52.74 51.44 50.66 48.55 50.09 46.69
56.20 54.58 55.58 55.38 55.60 55.13 55.03 54.57 53.49 53.92 54.19 53.94 54.20 54.97 54.75 54.46 53.14 52.01 51.25 50.32 49.17 48.02
56.68 56.58 55.12 54.45 54.48 54.44 54.49 53.97 52.44 51.85 53.40 53.72 53.33 53.95 53.95 54.01 53.70 51.77 51.44 51.25 49.11 48.02
56.18 56.67 56.94 56.72 56.24 56.77 55.40 53.63 52.40 51.74 51.48 51.55 51.61 52.25 53.10 53.04 52.73 52.31 51.19 49.97 48.80 48.51
53.57 54.76 54.89 55.20 55.42 56.14 56.88 56.75 54.89 52.90 52.21 52.54 52.51 52.06 52.15 52.56 52.94 51.69 51.04 49.49 48.53 48.52
42.98 47.61 50.44 52.80 52.02 52.66 54.49 55.31 55.23 54.22 52.49 52.18 52.28 51.27 51.81 52.20 52.23 51.54 51.50 50.10 49.06 48.66
39.02 41.85 45.17 48.83 52.51 53.30 53.40 52.98 52.32 51.73 51.15 50.84 50.49 50.97 51.12 51.26 51.34 50.69 50.72 49.96 49.18 48.52
36.91 39.48 41.97 44.12 47.24 52.94 52.72 52.74 52.62 51.97 51.54 51.17 50.58 50.33 50.32 50.66 50.53 49.79 49.41 49.10 49.30 49.12
34.74 36.60 38.86 40.99 42.96 46.90 51.12 51.71 51.23 51.63 51.38 50.81 50.73 49.23 49.20 50.15 50.06 49.45 49.25 48.14 48.48 48.69
32.69 34.34 36.31 38.78 40.25 41.61 44.41 48.94 50.93 50.87 51.00 50.55 50.51 49.06 49.35 48.62 49.35 48.68 48.96 48.67 47.51 46.72
31.41 32.50 34.08 36.49 37.72 38.97 41.68 44.08 45.38 46.99 49.61 49.34 49.55 48.34 48.57 47.81 47.99 47.11 46.86 47.42 47.29 46.81
31.04 31.42 32.29 33.23 35.36 37.50 39.01 40.75 41.64 42.79 44.42 44.80 45.31 46.95 47.74 47.40 47.76 47.26 46.70 46.68 46.57 46.59
30.91 31.01 30.58 31.96 33.22 35.97 37.52 38.13 39.55 39.31 40.04 42.53 42.44 44.88 46.64 46.91 46.15 44.67 44.05 44.23 44.83 46.41
29.87 30.38 30.88 31.38 32.46 33.28 35.40 36.40 36.61 37.30 38.08 38.67 41.52 42.96 45.69 46.22 44.86 43.98 42.61 42.48 42.19 43.10
MSLP
1011.77 1012.06 1012.63 1013.23 1013.85 1014.43 1014.98 1015.40 1015.97 1016.57 1016.94 1017.39 1018.01 1018.84 1019.29 1020.19 1020.76 1021.47 1022.05 1022.51 1022.96 1023.47
1011.71 1012.14 1012.39 1012.81 1013.30 1013.82 1014.31 1014.85 1015.35 1015.92 1016.52 1016.94 1017.41 1017.95 1018.55 1019.34 1020.01 1020.59 1021.13 1021.70 1022.31 1022.83
1011.45 1011.84 1012.27 1012.75 1013.12 1013.52 1013.98 1014.56 1015.13 1015.61 1016.10 1016.55 1017.03 1017.55 1018.18 1018.75 1019.38 1020.02 1020.48 1020.98 1021.62 1022.19
1011.23 1011.48 1011.87 1012.31 1012.80 1013.09 1013.65 1014.11 1014.65 1015.16 1015.66 1016.14 1016.63 1017.13 1017.66 1018.03 1018.65 1019.19 1019.63 1020.26 1020.79 1021.23
1011.54 1011.48 1011.72 1012.01 1012.49 1012.88 1013.29 1013.71 1014.05 1014.59 1015.10 1015.54 1016.00 1016.49 1016.92 1017.34 1017.79 1018.27 1018.77 1019.17 1019.95 1020.41
1012.49 1012.40 1012.10 1012.16 1012.47 1012.83 1012.99 1013.36 1013.73 1014.09 1014.47 1014.85 1015.27 1015.77 1016.17 1016.45 1017.07 1017.55 1017.95 1018.47 1019.05 1019.61
1014.04 1013.54 1012.94 1012.66 1012.57 1012.66 1012.98 1013.29 1013.61 1013.86 1014.17 1014.61 1014.99 1015.38 1015.91 1016.30 1016.78 1017.33 1017.62 1018.03 1018.58 1019.11
1015.03 1014.30 1014.17 1013.31 1012.96 1012.73 1013.02 1013.26 1013.57 1013.83 1014.20 1014.51 1014.86 1015.20 1015.59 1015.98 1016.43 1016.81 1017.28 1017.81 1018.22 1018.71
1016.01 1015.47 1014.75 1014.16 1013.33 1013.15 1013.10 1013.33 1013.50 1013.81 1014.00 1014.31 1014.56 1014.79 1015.18 1015.62 1015.95 1016.45 1016.86 1017.35 1017.88 1018.15
1017.04 1016.54 1015.58 1014.82 1013.73 1013.79 1013.63 1013.46 1013.45 1013.64 1013.83 1014.00 1014.22 1014.55 1014.98 1015.48 1015.85 1016.24 1016.52 1016.93 1017.35 1017.83
1018.21 1017.16 1016.66 1016.10 1014.53 1014.62 1014.40 1014.07 1014.09 1013.91 1013.70 1013.90 1014.11 1014.39 1014.82 1015.23 1015.77 1016.11 1016.35 1016.63 1016.92 1017.30
1019.07 1018.49 1017.87 1016.59 1015.78 1015.48 1015.02 1014.68 1014.62 1014.47 1014.53 1014.55 1014.63 1014.47 1014.76 1015.20 1015.59 1015.82 1016.07 1016.35 1016.72 1017.18
1020.13 1019.39 1018.55 1017.96 1017.03 1016.52 1015.85 1015.63 1015.34 1015.31 1015.43 1015.47 1015.33 1015.25 1015.07 1015.22 1015.50 1015.86 1016.26 1016.51 1016.72 1017.00
1020.95 1020.25 1019.84 1019.03 1017.97 1017.60 1016.91 1016.62 1016.35 1016.34 1016.38 1016.37 1016.14 1016.08 1015.61 1015.64 1015.71 1015.95 1016.22 1016.47 1016.76 1016.97
Wind_Speed
8 8 8 10 8 8 9 10 11 13 12 13 13 11 11 8 9 10 8 8 8 5
6 6 7 9 8 8 7 7 10 12 13 12 12 13 13 10 12 12 12 10 9 7
8 8 6 5 7 8 7 7 8 9 11 11 12 12 12 10 10 11 10 9 11 9
5 7 8 8 8 8 7 9 9 10 10 10 11 12 12 12 12 14 12 10 11 13
2 4 5 5 4 5 6 7 10 10 10 12 12 12 14 14 12 14 14 14 12 13
11 7 5 2 4 4 4 5 5 9 11 12 12 11 13 13 12 12 14 12 13 12
12 9 7 5 3 4 4 4 5 5 5 5 5 7 7 7 8 8 10 9 10 8
12 11 7 6 5 4 4 4 5 5 6 6 7 7 9 9 10 10 8 8 8 8
13 12 10 8 7 4 2 4 4 4 6 7 6 10 12 10 8 8 9 9 8 8
14 11 11 9 9 8 5 2 3 4 5 6 6 10 12 12 6 7 7 8 7 5
14 13 11 9 10 9 6 5 3 4 2 3 2 10 11 12 6 6 6 7 7 7
13 13 11 11 11 9 7 6 8 7 8 7 7 4 8 8 6 5 6 5 6 5
13 11 13 11 10 9 7 8 7 10 10 11 10 14 9 6 3 4 3 3 4 8
13 12 11 10 10 9 9 8 9 9 8 9 12 10 11 7 4 3 3 3 2 2
Wind_Direction
192 179 181 177 172 180 184 189 185 193 193 193 185 183 180 187 191 196 197 188 197 186
169 171 180 174 172 178 180 181 181 188 195 196 192 189 186 192 199 197 199 203 195 190
177 177 168 170 177 171 179 168 176 182 195 194 197 196 190 197 199 196 204 202 194 199
176 183 175 178 188 182 178 176 176 183 187 191 197 199 198 205 197 199 197 197 197 202
27 141 151 146 160 161 179 183 191 188 195 203 205 201 204 207 204 202 200 197 193 203
21 16 36 136 165 187 179 192 193 198 201 202 204 202 206 206 203 202 208 198 193 199
10 3 2 351 186 163 169 164 169 174 171 174 173 180 187 187 198 208 207 195 191 186
357 4 345 25 15 163 160 164 169 164 177 173 180 186 187 190 190 186 184 181 185 189
359 357 353 2 28 25 123 172 163 179 177 180 186 187 191 190 187 187 188 185 189 186
3 353 354 358 37 22 18 17 174 189 188 186 183 184 192 191 191 186 193 189 178 182
356 -0 351 353 32 22 4 45 50 52 116 116 171 185 190 186 180 186 189 188 182 182
360 359 349 6 17 11 17 39 52 53 54 66 43 89 181 172 179 188 190 179 172 181
360 1 2 359 9 1 23 36 48 56 47 44 52 28 74 111 127 124 124 117 143 185
4 3 359 359 16 3 17 34 40 46 50 37 39 28 49 71 79 102 119 122 111 86